FLOCK 2K-13

Last updated on Wed Feb 14 2018 16:20:54 GMT+0000 (Coordinated Universal Time)

1 42891U 17042BU 18045.49726565 .00004655 00000-0 13823-3 0 9990 2 42891 96.9929 308.3297 0013136 171.9252 188.2206 15.35163645 32802
UTC large
Height (km)
Speed (km/s)
/
Latitude / Longitude
Inclination (degrees)
Orbital Period (minutes)
Azimuth
Elevation
Range (km)
Doppler Factor

Next 0 passes for location: London (51.5072 / 0.1276)

Sorry there are no passes over London.